This is the latest recevied weather packets stored in our database for station/object N5RPG. If no packets are shown the sender has not sent any weather packets the latest 10 day(s).
| Time | Temp. | Humidity | Pressure | Rain* | Wind** | Luminosity | Snow |
|---|---|---|---|---|---|---|---|
| 1777745840 | 22.78° C | 44% | 1022 hPa | 0 mm | - | 205 W/m² | - |
| 1777745540 | 22.78° C | 44% | 1022.1 hPa | 0 mm | - | 1047 W/m² | - |
| 1777745236 | 22.22° C | 45% | 1021.9 hPa | 0 mm | - | 940 W/m² | - |
| 1777744934 | 22.22° C | 44% | 1022.1 hPa | 0 mm | - | 923 W/m² | - |
| 1777744633 | 22.22° C | 45% | 1022.2 hPa | 0 mm | - | 899 W/m² | - |
| 1777744329 | 23.33° C | 43% | 1022.2 hPa | 0 mm | - | 869 W/m² | - |
| 1777744026 | 22.78° C | 45% | 1022.2 hPa | 0 mm | - | 851 W/m² | - |
| 1777743722 | 22.22° C | 44% | 1022.1 hPa | 0 mm | - | 832 W/m² | - |
| 1777743419 | 21.67° C | 44% | 1022.1 hPa | 0 mm | - | 826 W/m² | - |
| 1777743117 | 21.67° C | 45% | 1022.2 hPa | 0 mm | - | 811 W/m² | - |
| 1777742815 | 21.67° C | 46% | 1022.2 hPa | 0 mm | - | 799 W/m² | - |
| 1777742511 | 21.67° C | 46% | 1022.2 hPa | 0 mm | - | 790 W/m² | - |
| 1777742206 | 22.22° C | 47% | 1022.3 hPa | 0 mm | - | 776 W/m² | - |
| 1777741904 | 22.22° C | 50% | 1022.3 hPa | 0 mm | - | 770 W/m² | - |
| 1777741601 | 22.78° C | 50% | 1022.4 hPa | 0 mm | - | 768 W/m² | - |
| 1777741298 | 21.67° C | 48% | 1022.6 hPa | 0 mm | - | 765 W/m² | - |
| 1777740994 | 21.67° C | 48% | 1022.6 hPa | 0 mm | - | 781 W/m² | - |
| 1777740691 | 21.11° C | 47% | 1022.5 hPa | 0 mm | - | 755 W/m² | - |
| 1777740387 | 21.11° C | 47% | 1022.7 hPa | 0 mm | - | 754 W/m² | - |
| 1777740084 | 21.11° C | 46% | 1022.6 hPa | 0 mm | - | 751 W/m² | - |
| 1777739780 | 21.11° C | 48% | 1022.7 hPa | 0 mm | - | 761 W/m² | - |
| 1777739477 | 21.11° C | 52% | 1022.7 hPa | 0 mm | - | 746 W/m² | - |
| 1777739174 | 20.56° C | 54% | 1022.5 hPa | 0 mm | - | 741 W/m² | - |
| 1777738871 | 20.56° C | 52% | 1022.6 hPa | 0 mm | - | 731 W/m² | - |
| 1777738568 | 20° C | 55% | 1022.7 hPa | 0 mm | - | 723 W/m² | - |
* Rain latest hour (hover to see other rain measurements)
** Current wind speed in m/s (hover to see current wind gust speed)